EN

Hourly Weather Kyselytsi

Today, 4 August, Wednesday

Time Temperature Precipitation Wind Pressure Humidity
00:00 +16°C° 0 mm 2 mps 706 mmHg 100%
01:00 +16°C° 0 mm 2 mps 705 mmHg 99%
02:00 +16°C° 0 mm 2 mps 705 mmHg 97%
03:00 +16°C° 0 mm 1 mps 705 mmHg 96%
04:00 +16°C° 0 mm 2 mps 705 mmHg 94%
05:00 +15°C° 0 mm 2 mps 705 mmHg 92%
06:00 +16°C° 0 mm 2 mps 705 mmHg 90%
07:00 +17°C° 0 mm 2 mps 705 mmHg 91%
08:00 +20°C° 0 mm 1 mps 706 mmHg 95%
09:00 +21°C° 0 mm 2 mps 706 mmHg 93%
10:00 +24°C° 0 mm 2 mps 706 mmHg 84%
11:00 +25°C° 0 mm 3 mps 706 mmHg 78%
12:00 +25°C° 0 mm 4 mps 706 mmHg 77%
13:00 +23°C° 0 mm 4 mps 705 mmHg 72%
14:00 +25°C° 0 mm 3 mps 705 mmHg 75%
15:00 +26°C° 0 mm 2 mps 705 mmHg 73%
16:00 +26°C° 0 mm 3 mps 704 mmHg 74%
17:00 +26°C° 0 mm 3 mps 704 mmHg 78%
18:00 +25°C° 0 mm 3 mps 703 mmHg 84%
19:00 +24°C° 0 mm 3 mps 703 mmHg 90%
20:00 +21°C° 1 mm 3 mps 703 mmHg 95%
21:00 +20°C° 0 mm 2 mps 703 mmHg 95%
22:00 +20°C° 0 mm 2 mps 703 mmHg 95%
23:00 +19°C° 0 mm 3 mps 703 mmHg 96%

Tomorrow, 5 August, Thursday

Time Temperature Precipitation Wind Pressure Humidity
00:00 +19°C° 0 mm 2 mps 702 mmHg 95%
01:00 +19°C° 0 mm 2 mps 702 mmHg 94%
02:00 +19°C° 0 mm 2 mps 702 mmHg 93%
03:00 +19°C° 0 mm 2 mps 701 mmHg 94%
04:00 +18°C° 0 mm 2 mps 701 mmHg 95%
05:00 +18°C° 0 mm 2 mps 701 mmHg 92%
06:00 +18°C° 0 mm 3 mps 701 mmHg 91%
07:00 +19°C° 0 mm 2 mps 702 mmHg 92%
08:00 +20°C° 0 mm 2 mps 702 mmHg 94%
09:00 +22°C° 0 mm 1 mps 702 mmHg 93%
10:00 +24°C° 0 mm 1 mps 702 mmHg 83%
11:00 +25°C° 0 mm 2 mps 702 mmHg 85%
12:00 +26°C° 0 mm 3 mps 702 mmHg 84%
13:00 +27°C° 0 mm 4 mps 701 mmHg 84%
14:00 +26°C° 0 mm 6 mps 700 mmHg 91%
15:00 +26°C° 0 mm 6 mps 699 mmHg 92%
16:00 +26°C° 0 mm 5 mps 698 mmHg 92%
17:00 +26°C° 0 mm 6 mps 696 mmHg 92%
18:00 +25°C° 0 mm 5 mps 696 mmHg 92%
19:00 +25°C° 0 mm 5 mps 696 mmHg 91%
20:00 +24°C° 0 mm 3 mps 696 mmHg 95%
21:00 +20°C° 0 mm 4 mps 696 mmHg 100%
22:00 +18°C° 0.1 mm 2 mps 695 mmHg 100%
23:00 +18°C° 0 mm 2 mps 695 mmHg 100%

Day after tomorrow, 6 August, Friday

Time Temperature Precipitation Wind Pressure Humidity
00:00 +19°C° 0 mm 1 mps 695 mmHg 100%
01:00 +19°C° 0 mm 1 mps 694 mmHg 100%
02:00 +20°C° 0 mm 1 mps 694 mmHg 97%
03:00 +20°C° 0 mm 1 mps 694 mmHg 95%
04:00 +19°C° 0 mm 2 mps 694 mmHg 95%
05:00 +19°C° 0 mm 2 mps 694 mmHg 96%
06:00 +20°C° 0 mm 1 mps 694 mmHg 98%
07:00 +18°C° 0.1 mm 2 mps 695 mmHg 100%
08:00 +18°C° 1.6 mm 2 mps 695 mmHg 100%
09:00 +20°C° 0.5 mm 4 mps 695 mmHg 99%
10:00 +21°C° 0 mm 4 mps 696 mmHg 96%
11:00 +22°C° 0 mm 5 mps 696 mmHg 94%
12:00 +22°C° 0 mm 4 mps 696 mmHg 92%
13:00 +23°C° 0 mm 4 mps 696 mmHg 88%
14:00 +23°C° 0 mm 4 mps 696 mmHg 88%
15:00 +24°C° 0 mm 3 mps 696 mmHg 88%
16:00 +24°C° 0 mm 3 mps 696 mmHg 86%
17:00 +22°C° 0 mm 3 mps 696 mmHg 87%
18:00 +22°C° 0 mm 3 mps 696 mmHg 89%
19:00 +21°C° 0 mm 2 mps 696 mmHg 92%
20:00 +20°C° 0 mm 2 mps 697 mmHg 97%
21:00 +18°C° 0 mm 0 mps 697 mmHg 95%
22:00 +20°C° 0 mm 1 mps 697 mmHg 99%
23:00 +19°C° 0 mm 1 mps 697 mmHg 100%

7 August, Saturday

Time Temperature Precipitation Wind Pressure Humidity
00:00 +19°C° 0 mm 1 mps 697 mmHg 100%
01:00 +16°C° 0 mm 0 mps 698 mmHg 100%
02:00 +18°C° 0 mm 1 mps 698 mmHg 100%
03:00 +18°C° 0 mm 1 mps 698 mmHg 100%
04:00 +17°C° 0 mm 2 mps 698 mmHg 100%
05:00 +17°C° 0 mm 2 mps 699 mmHg 100%
06:00 +16°C° 0 mm 2 mps 699 mmHg 100%
07:00 +17°C° 0 mm 2 mps 700 mmHg 100%
08:00 +17°C° 0 mm 2 mps 700 mmHg 100%
09:00 +17°C° 0 mm 2 mps 700 mmHg 100%
10:00 +18°C° 0 mm 3 mps 701 mmHg 100%
11:00 +19°C° 0 mm 2 mps 701 mmHg 100%
12:00 +20°C° 0.3 mm 2 mps 702 mmHg 100%
13:00 +20°C° 0.7 mm 3 mps 702 mmHg 100%
14:00 +20°C° 0.1 mm 2 mps 702 mmHg 100%
15:00 +20°C° 0.9 mm 2 mps 702 mmHg 100%
16:00 +21°C° 0.2 mm 3 mps 702 mmHg 99%
17:00 +20°C° 1 mm 2 mps 703 mmHg 100%
18:00 +21°C° 0.1 mm 1 mps 703 mmHg 100%
19:00 +19°C° 1.8 mm 2 mps 703 mmHg 100%
20:00 +20°C° 0 mm 1 mps 703 mmHg 100%
21:00 +19°C° 0.8 mm 1 mps 704 mmHg 100%
22:00 +17°C° 0 mm 0 mps 704 mmHg 100%
23:00 +17°C° 0 mm 0 mps 704 mmHg 100%

8 August, Sunday

Time Temperature Precipitation Wind Pressure Humidity
00:00 +17°C° 0 mm 0 mps 704 mmHg 100%
01:00 +19°C° 0 mm 1 mps 704 mmHg 100%
02:00 +18°C° 0 mm 1 mps 704 mmHg 100%
03:00 +18°C° 0 mm 1 mps 704 mmHg 100%
04:00 +16°C° 0 mm 1 mps 704 mmHg 100%
05:00 +16°C° 0 mm 1 mps 705 mmHg 99%
06:00 +16°C° 0 mm 2 mps 705 mmHg 99%
07:00 +18°C° 0 mm 1 mps 705 mmHg 100%
08:00 +20°C° 0 mm 1 mps 705 mmHg 97%
09:00 +21°C° 0 mm 1 mps 706 mmHg 90%
10:00 +23°C° 0 mm 1 mps 706 mmHg 85%
11:00 +24°C° 0 mm 1 mps 707 mmHg 83%
12:00 +25°C° 0 mm 2 mps 707 mmHg 82%
13:00 +25°C° 0 mm 2 mps 707 mmHg 81%
14:00 +26°C° 0 mm 2 mps 707 mmHg 77%
15:00 +26°C° 0 mm 2 mps 707 mmHg 77%
16:00 +26°C° 0 mm 3 mps 707 mmHg 78%
17:00 +26°C° 0 mm 3 mps 707 mmHg 79%
18:00 +25°C° 0 mm 3 mps 707 mmHg 83%
19:00 +24°C° 0 mm 3 mps 707 mmHg 88%
20:00 +23°C° 0 mm 2 mps 707 mmHg 87%
21:00 +23°C° 0 mm 2 mps 707 mmHg 87%
22:00 +22°C° 0 mm 1 mps 707 mmHg 84%
23:00 +22°C° 0 mm 1 mps 707 mmHg 84%

9 August, Monday

Time Temperature Precipitation Wind Pressure Humidity
00:00 +22°C° 0 mm 1 mps 707 mmHg 86%
01:00 +21°C° 0 mm 1 mps 707 mmHg 88%
02:00 +21°C° 0 mm 1 mps 707 mmHg 90%
03:00 +20°C° 0 mm 2 mps 707 mmHg 92%
04:00 +20°C° 0 mm 2 mps 707 mmHg 93%
05:00 +19°C° 0 mm 2 mps 707 mmHg 95%
06:00 +19°C° 0 mm 2 mps 706 mmHg 97%
07:00 +20°C° 0 mm 2 mps 707 mmHg 98%
08:00 +22°C° 0 mm 1 mps 707 mmHg 99%
09:00 +24°C° 0 mm 1 mps 707 mmHg 93%
10:00 +26°C° 0 mm 2 mps 707 mmHg 89%
11:00 +27°C° 0 mm 3 mps 707 mmHg 81%
12:00 +28°C° 0 mm 3 mps 707 mmHg 81%
13:00 +28°C° 0 mm 4 mps 707 mmHg 82%
14:00 +27°C° 0 mm 3 mps 707 mmHg 84%
15:00 +21°C° 0.8 mm 4 mps 706 mmHg 100%
16:00 +21°C° 0.9 mm 4 mps 706 mmHg 89%
17:00 +22°C° 0 mm 5 mps 706 mmHg 91%
18:00 +20°C° 0 mm 3 mps 706 mmHg 100%
19:00 +19°C° 0 mm 3 mps 706 mmHg 100%
20:00 +19°C° 0 mm 2 mps 706 mmHg 100%
21:00 +19°C° 0 mm 2 mps 706 mmHg 100%
22:00 +18°C° 0 mm 2 mps 706 mmHg 100%
23:00 +18°C° 0 mm 2 mps 707 mmHg 100%
Show more